📊 Raw Sensor Data

Showing records 46351 to 46375 of 85,069 total

ID Distance (ft) Battery V Battery A Int Temp (°F) Int Humid (%) Ext Temp (°F) Solar V RSSI SNR Time Stamp
38731 -- 3.98 0 78 39 70 5.10 -82 8 04/24/2025 02:30 PM
38730 -- 4.07 5 77 39 70 5.10 -82 8 04/24/2025 02:15 PM
38729 -- 3.98 0 77 38 69 5.10 -80 9 04/24/2025 02:00 PM
38728 -- 4.01 5 75 39 68 5.10 -82 8 04/24/2025 01:45 PM
38727 -- 3.98 0 73 39 69 5.10 -79 8 04/24/2025 01:30 PM
38726 -- 3.98 0 72 40 63 5.10 -80 8 04/24/2025 01:15 PM
38725 -- 3.98 5 70 40 66 5.10 -78 8 04/24/2025 01:00 PM
38724 -- 3.98 0 71 40 65 5.10 -78 8 04/24/2025 12:45 PM
38723 -- 3.98 0 71 40 66 5.10 -79 8 04/24/2025 12:30 PM
38722 -- 4.10 5 70 40 66 5.10 -77 8 04/24/2025 12:15 PM
38721 -- 3.98 0 70 40 67 5.10 -81 8 04/24/2025 12:00 PM
38720 -- 3.98 0 67 40 62 5.10 -80 7 04/24/2025 11:45 AM
38719 -- 3.98 5 67 40 64 5.10 -83 9 04/24/2025 11:30 AM
38718 -- 3.98 0 66 40 65 5.10 -76 8 04/24/2025 11:15 AM
38717 -- 3.98 5 65 40 62 5.10 -81 8 04/24/2025 11:00 AM
38716 -- 3.98 0 67 38 61 5.10 -81 8 04/24/2025 10:45 AM
38715 -- 4.00 0 63 39 66 5.10 -84 8 04/24/2025 10:30 AM
38714 -- 3.98 0 61 40 56 5.10 -81 8 04/24/2025 10:15 AM
38713 -- 3.98 5 59 40 59 5.10 -89 8 04/24/2025 10:00 AM
38712 -- 3.99 5 58 40 57 5.10 -83 8 04/24/2025 09:45 AM
38711 -- 3.98 5 57 41 54 5.10 -81 7 04/24/2025 09:30 AM
38710 -- 3.98 0 57 40 55 5.10 -84 8 04/24/2025 09:15 AM
38709 -- 3.98 0 57 40 55 5.10 -82 9 04/24/2025 09:00 AM
38708 -- 3.98 0 56 40 56 5.10 -85 9 04/24/2025 08:45 AM
38707 -- 4.13 5 55 40 54 5.10 -84 8 04/24/2025 08:30 AM